�������l�o���
Date,Time,MP-1(��Sv/h),MP-2(��Sv/h),MP-3(��Sv/h),MP-4(��Sv/h),MP-5(��Sv/h),MP-6(��Sv/h),MP-7(��Sv/h),MP-8(��Sv/h),����,����(m/s),���J
2015/09/09,00:00,1.625,2.542,2.895,2.743,2.663,0.885,1.527,1.432,�k,7.8,�L
2015/09/09,00:10,1.617,2.522,2.872,2.725,2.633,0.885,1.522,1.428,�k,7.7,�L
2015/09/09,00:20,1.608,2.515,2.855,2.712,2.595,0.878,1.512,1.427,�k,6.3,�L
2015/09/09,00:30,1.597,2.505,2.843,2.702,2.572,0.877,1.507,1.420,�k,6.7,�L
2015/09/09,00:40,1.597,2.502,2.832,2.698,2.552,0.873,1.502,1.417,�k,6.3,�L
2015/09/09,00:50,1.597,2.510,2.820,2.695,2.532,0.873,1.502,1.420,�k,7.1,�L
2015/09/09,01:00,1.602,2.513,2.817,2.693,2.525,0.877,1.502,1.420,�k�k��,7.2,�L
2015/09/09,01:10,1.603,2.515,2.810,2.688,2.517,0.875,1.500,1.418,�k�k��,7.1,�L
2015/09/09,01:20,1.592,2.495,2.790,2.677,2.488,0.870,1.495,1.413,�k,8.2,�L
2015/09/09,01:30,1.585,2.488,2.780,2.668,2.472,0.868,1.495,1.417,�k�k��,7.7,�L
2015/09/09,01:40,1.600,2.507,2.787,2.677,2.458,0.865,1.493,1.415,�k�k��,7.7,�L
2015/09/09,01:50,1.607,2.508,2.782,2.677,2.438,0.860,1.488,1.413,�k,6.4,�L
2015/09/09,02:00,1.617,2.522,2.788,2.685,2.432,0.857,1.488,1.415,�k�k��,6.8,�L
2015/09/09,02:10,1.615,2.508,2.778,2.682,2.417,0.855,1.488,1.418,�k,4.9,�L
2015/09/09,02:20,1.612,2.515,2.793,2.693,2.437,0.862,1.495,1.422,�k,5.3,�L
2015/09/09,02:30,1.627,2.537,2.820,2.713,2.460,0.863,1.502,1.427,�k,5.8,��
2015/09/09,02:40,1.635,2.548,2.843,2.733,2.492,0.867,1.507,1.427,�k�k��,5.7,�L
2015/09/09,02:50,1.638,2.555,2.853,2.742,2.515,0.867,1.510,1.428,�k�k��,6.9,�L
2015/09/09,03:00,1.637,2.553,2.853,2.740,2.523,0.867,1.512,1.430,�k�k��,6.0,�L
2015/09/09,03:10,1.635,2.545,2.853,2.733,2.525,0.867,1.515,1.430,�k�k��,7.7,�L
2015/09/09,03:20,1.625,2.535,2.848,2.728,2.515,0.867,1.512,1.428,�k�k��,5.4,�L
2015/09/09,03:30,1.618,2.517,2.832,2.713,2.502,0.863,1.503,1.422,�k�k��,5.5,�L
2015/09/09,03:40,1.617,2.515,2.825,2.703,2.498,0.862,1.503,1.423,�k,4.0,�L
2015/09/09,03:50,1.610,2.507,2.820,2.700,2.490,0.860,1.502,1.422,�k�k��,4.3,�L
2015/09/09,04:00,1.598,2.495,2.802,2.685,2.467,0.858,1.497,1.418,�k,6.0,�L
2015/09/09,04:10,1.603,2.500,2.792,2.678,2.445,0.850,1.495,1.417,�k�k��,7.5,�L
2015/09/09,04:20,1.620,2.527,2.813,2.698,2.470,0.857,1.502,1.422,�k��,10.2,��
2015/09/09,04:30,1.633,2.550,2.837,2.725,2.498,0.860,1.507,1.425,�k��,10.7,��
2015/09/09,04:40,1.638,2.560,2.862,2.738,2.523,0.862,1.513,1.427,�k��,10.7,�L
2015/09/09,04:50,1.642,2.565,2.865,2.738,2.533,0.865,1.515,1.427,�k��,11.5,�L
2015/09/09,05:00,1.645,2.568,2.880,2.747,2.550,0.868,1.518,1.430,�k�k��,9.4,��
2015/09/09,05:10,1.645,2.577,2.890,2.752,2.563,0.870,1.520,1.432,�k�k��,10.5,��
2015/09/09,05:20,1.647,2.582,2.900,2.758,2.588,0.870,1.522,1.432,�k��,10.2,��
2015/09/09,05:30,1.647,2.585,2.917,2.763,2.605,0.870,1.523,1.435,�k��,10.1,�L
2015/09/09,05:40,1.652,2.590,2.918,2.772,2.615,0.873,1.525,1.433,�k�k��,10.5,��
2015/09/09,05:50,1.652,2.585,2.928,2.777,2.627,0.873,1.528,1.435,�k��,12.4,��
2015/09/09,06:00,1.650,2.592,2.932,2.782,2.643,0.877,1.532,1.435,�k��,10.2,��
2015/09/09,06:10,1.653,2.595,2.940,2.787,2.652,0.875,1.530,1.435,�k�k��,9.3,��
2015/09/09,06:20,1.655,2.595,2.945,2.787,2.663,0.877,1.533,1.437,�k�k��,9.9,��
2015/09/09,06:30,1.653,2.592,2.948,2.790,2.678,0.877,1.535,1.438,�k�k��,10.2,��
2015/09/09,06:40,1.655,2.593,2.958,2.800,2.693,0.880,1.537,1.437,�k�k��,9.7,��
2015/09/09,06:50,1.653,2.595,2.960,2.797,2.702,0.878,1.537,1.440,�k��,11.3,��
2015/09/09,07:00,1.658,2.598,2.968,2.802,2.708,0.880,1.538,1.437,�k�k��,9.6,��
2015/09/09,07:10,1.660,2.602,2.968,2.802,2.713,0.883,1.538,1.440,�k��,9.4,��
2015/09/09,07:20,1.662,2.603,2.973,2.807,2.722,0.883,1.540,1.440,�k��,10.7,��
2015/09/09,07:30,1.660,2.602,2.975,2.810,2.728,0.882,1.543,1.438,�k��,11.8,��
2015/09/09,07:40,1.660,2.605,2.977,2.812,2.733,0.883,1.540,1.440,�k�k��,10.2,��
2015/09/09,07:50,1.662,2.605,2.983,2.810,2.742,0.885,1.543,1.442,�k�k��,9.6,��
2015/09/09,08:00,1.665,2.607,2.985,2.813,2.743,0.887,1.543,1.443,�k��,10.7,��
2015/09/09,08:10,1.665,2.608,2.985,2.815,2.747,0.888,1.545,1.442,�k��,9.9,��
2015/09/09,08:20,1.665,2.610,2.988,2.822,2.753,0.888,1.545,1.445,�k�k��,11.3,��
2015/09/09,08:30,1.663,2.610,2.990,2.820,2.760,0.887,1.548,1.442,�k��,10.5,�L
2015/09/09,08:40,1.668,2.607,2.988,2.820,2.760,0.888,1.547,1.445,�k��,10.7,�L
2015/09/09,08:50,1.668,2.608,2.983,2.813,2.753,0.887,1.545,1.443,�k�k��,10.7,�L
2015/09/09,09:00,1.665,2.605,2.987,2.813,2.753,0.888,1.545,1.442,�k��,11.9,�L
2015/09/09,09:10,1.667,2.603,2.985,2.813,2.757,0.888,1.543,1.445,�k��,10.5,��
2015/09/09,09:20,1.667,2.603,2.987,2.815,2.760,0.887,1.543,1.447,�k��,10.8,�L
2015/09/09,09:30,1.668,2.608,2.992,2.818,2.765,0.888,1.548,1.445,�k�k��,10.2,��
2015/09/09,09:40,1.667,2.607,2.993,2.818,2.768,0.890,1.547,1.445,�k��,10.2,�L
2015/09/09,09:50,1.668,2.607,3.000,2.818,2.770,0.888,1.547,1.445,�k�k��,9.1,�L
2015/09/09,10:00,1.663,2.608,2.997,2.820,2.768,0.885,1.548,1.443,�k�k��,8.8,�L
2015/09/09,10:10,1.665,2.608,2.990,2.817,2.760,0.885,1.543,1.443,�k��,10.5,�L
2015/09/09,10:20,1.663,2.603,2.987,2.815,2.765,0.890,1.545,1.442,�k��,9.3,�L
2015/09/09,10:30,1.665,2.600,2.988,2.813,2.763,0.888,1.545,1.443,�k��,6.1,�L
2015/09/09,10:40,1.658,2.582,2.973,2.800,2.737,0.883,1.540,1.437,���k��,9.1,�L
2015/09/09,10:50,1.652,2.580,2.967,2.795,2.735,0.883,1.538,1.438,���k��,7.9,�L
2015/09/09,11:00,1.650,2.583,2.967,2.792,2.738,0.885,1.538,1.442,���k��,9.6,�L
2015/09/09,11:10,1.655,2.583,2.963,2.795,2.735,0.885,1.537,1.438,���k��,4.1,�L
2015/09/09,11:20,1.647,2.552,2.938,2.778,2.692,0.880,1.532,1.435,���k��,4.8,�L
2015/09/09,11:30,1.638,2.547,2.933,2.775,2.687,0.878,1.530,1.433,��,9.1,�L
2015/09/09,11:40,1.643,2.558,2.943,2.778,2.705,0.882,1.535,1.437,���k��,3.4,�L
2015/09/09,11:50,1.647,2.567,2.950,2.785,2.717,0.885,1.535,1.438,���k��,6.6,�L
2015/09/09,12:00,1.648,2.575,2.962,2.788,2.727,0.885,1.537,1.440,���k��,6.3,��
2015/09/09,12:10,1.652,2.580,2.965,2.793,2.737,0.888,1.542,1.438,���k��,7.9,��
2015/09/09,12:20,1.658,2.583,2.973,2.802,2.747,0.887,1.543,1.442,���k��,8.5,��
2015/09/09,12:30,1.658,2.592,2.977,2.805,2.757,0.890,1.545,1.442,���k��,11.0,��
2015/09/09,12:40,1.660,2.598,2.983,2.813,2.760,0.890,1.545,1.442,���k��,7.4,��
2015/09/09,12:50,1.663,2.602,2.987,2.813,2.767,0.890,1.550,1.445,��,8.3,��
2015/09/09,13:00,1.665,2.600,2.988,2.820,2.773,0.890,1.548,1.447,���k��,8.2,��
2015/09/09,13:10,1.665,2.610,2.990,2.822,2.775,0.890,1.550,1.445,��,8.5,��
2015/09/09,13:20,1.667,2.610,2.995,2.825,2.783,0.892,1.552,1.447,���k��,8.3,��
2015/09/09,13:30,1.667,2.610,2.997,2.823,2.793,0.895,1.555,1.448,��,8.8,��
2015/09/09,13:40,1.668,2.610,3.005,2.830,2.805,0.892,1.555,1.448,��,11.6,��
2015/09/09,13:50,1.672,2.612,3.010,2.830,2.803,0.893,1.553,1.450,���k��,10.2,��
2015/09/09,14:00,1.672,2.618,3.008,2.833,2.812,0.895,1.555,1.448,��,10.4,��
2015/09/09,14:10,1.673,2.618,3.017,2.837,2.813,0.892,1.557,1.450,��,13.0,��
2015/09/09,14:20,1.673,2.623,3.015,2.838,2.818,0.895,1.557,1.447,��,13.4,��
2015/09/09,14:30,1.673,2.627,3.018,2.837,2.822,0.897,1.560,1.452,��,13.0,��
2015/09/09,14:40,1.678,2.625,3.023,2.845,2.827,0.897,1.562,1.453,��,10.5,��
2015/09/09,14:50,1.678,2.628,3.025,2.842,2.832,0.898,1.562,1.455,��,11.6,��
2015/09/09,15:00,1.677,2.628,3.027,2.847,2.837,0.898,1.560,1.455,��,10.1,��
2015/09/09,15:10,1.680,2.633,3.030,2.845,2.837,0.898,1.562,1.453,��,11.8,��
2015/09/09,15:20,1.682,2.632,3.032,2.847,2.842,0.900,1.562,1.455,��,11.0,��
2015/09/09,15:30,1.682,2.632,3.035,2.848,2.845,0.900,1.563,1.455,��,10.8,��
2015/09/09,15:40,1.682,2.633,3.033,2.847,2.848,0.898,1.565,1.453,��,11.3,��
2015/09/09,15:50,1.685,2.633,3.035,2.852,2.845,0.897,1.565,1.455,��,10.1,��
2015/09/09,16:00,1.683,2.635,3.038,2.850,2.850,0.900,1.565,1.455,��,9.6,��
2015/09/09,16:10,1.682,2.640,3.042,2.855,2.850,0.900,1.565,1.457,��,11.3,��
2015/09/09,16:20,1.682,2.638,3.047,2.855,2.853,0.900,1.567,1.457,���쓌,12.1,��
2015/09/09,16:30,1.685,2.637,3.045,2.853,2.855,0.900,1.565,1.457,��,12.7,��
2015/09/09,16:40,1.687,2.640,3.045,2.858,2.862,0.903,1.565,1.457,��,14.0,��
2015/09/09,16:50,1.683,2.638,3.047,2.857,2.862,0.903,1.567,1.458,��,13.2,��
2015/09/09,17:00,1.683,2.638,3.045,2.860,2.863,0.900,1.567,1.457,���쓌,12.9,��
2015/09/09,17:10,1.685,2.640,3.050,2.862,2.865,0.902,1.568,1.460,���쓌,9.7,��
2015/09/09,17:20,1.687,2.640,3.048,2.857,2.867,0.903,1.568,1.460,��,9.6,��
2015/09/09,17:30,1.685,2.647,3.053,2.858,2.873,0.905,1.570,1.462,��,10.4,��
2015/09/09,17:40,1.688,2.645,3.048,2.860,2.873,0.903,1.567,1.460,��,9.0,��
2015/09/09,17:50,1.688,2.642,3.052,2.860,2.872,0.905,1.568,1.460,��,9.9,��
2015/09/09,18:00,1.687,2.640,3.052,2.860,2.877,0.902,1.570,1.458,��,8.5,��
2015/09/09,18:10,1.688,2.640,3.053,2.860,2.877,0.905,1.572,1.458,��,11.5,��
2015/09/09,18:20,1.687,2.645,3.053,2.857,2.878,0.905,1.568,1.457,��,10.8,��
2015/09/09,18:30,1.687,2.643,3.057,2.860,2.880,0.905,1.570,1.460,��,10.7,��
2015/09/09,18:40,1.687,2.642,3.057,2.865,2.883,0.903,1.572,1.462,��,12.4,��
2015/09/09,18:50,1.687,2.645,3.058,2.865,2.885,0.905,1.573,1.463,��,10.8,��
2015/09/09,19:00,1.687,2.647,3.057,2.863,2.888,0.907,1.572,1.460,��,10.5,��
2015/09/09,19:10,1.690,2.648,3.060,2.865,2.890,0.908,1.572,1.457,��,10.7,��
2015/09/09,19:20,1.690,2.645,3.060,2.865,2.890,0.907,1.572,1.460,��,11.3,��
2015/09/09,19:30,1.688,2.645,3.060,2.868,2.873,0.900,1.568,1.458,��,8.0,�L
2015/09/09,19:40,1.690,2.645,3.055,2.865,2.858,0.900,1.565,1.457,��,11.0,�L
2015/09/09,19:50,1.690,2.645,3.060,2.862,2.853,0.898,1.562,1.453,��,11.6,�L
2015/09/09,20:00,1.687,2.637,3.047,2.857,2.848,0.900,1.562,1.455,��,12.3,�L
2015/09/09,20:10,1.685,2.635,3.043,2.855,2.848,0.898,1.560,1.455,��,12.1,��
2015/09/09,20:20,1.687,2.640,3.047,2.855,2.855,0.902,1.563,1.455,��,12.6,��
2015/09/09,20:30,1.690,2.637,3.052,2.855,2.857,0.900,1.563,1.457,��,12.7,��
2015/09/09,20:40,1.690,2.640,3.050,2.858,2.862,0.902,1.563,1.455,��,12.9,��
2015/09/09,20:50,1.692,2.640,3.052,2.857,2.863,0.902,1.563,1.453,��,12.3,��
2015/09/09,21:00,1.687,2.638,3.048,2.860,2.865,0.902,1.565,1.457,��,10.7,��
2015/09/09,21:10,1.685,2.640,3.052,2.860,2.870,0.898,1.567,1.455,��,9.7,�L
2015/09/09,21:20,1.683,2.625,3.042,2.863,2.868,0.900,1.563,1.457,��,11.0,�L
2015/09/09,21:30,1.667,2.585,3.010,2.847,2.838,0.897,1.557,1.452,��,7.4,�L
2015/09/09,21:40,1.660,2.575,2.993,2.832,2.822,0.895,1.555,1.448,��,11.5,�L
2015/09/09,21:50,1.663,2.588,3.000,2.835,2.823,0.895,1.557,1.448,���쓌,11.3,��
2015/09/09,22:00,1.665,2.595,3.005,2.838,2.835,0.900,1.557,1.448,���쓌,11.8,��
2015/09/09,22:10,1.668,2.593,3.008,2.842,2.842,0.902,1.557,1.450,���쓌,10.7,�L
2015/09/09,22:20,1.667,2.592,3.003,2.837,2.843,0.900,1.558,1.447,���쓌,10.7,�L
2015/09/09,22:30,1.660,2.575,2.977,2.817,2.820,0.897,1.552,1.443,���쓌,9.7,�L
2015/09/09,22:40,1.650,2.553,2.952,2.792,2.785,0.895,1.547,1.440,�쓌,10.2,�L
2015/09/09,22:50,1.643,2.533,2.925,2.772,2.735,0.890,1.535,1.433,�쓌,8.3,�L
2015/09/09,23:00,1.647,2.552,2.938,2.782,2.750,0.892,1.538,1.437,�쓌,8.5,��
2015/09/09,23:10,1.653,2.572,2.953,2.795,2.768,0.895,1.542,1.442,���쓌,7.1,��
2015/09/09,23:20,1.653,2.582,2.968,2.803,2.785,0.895,1.543,1.442,���쓌,8.5,��
2015/09/09,23:30,1.655,2.592,2.975,2.808,2.795,0.895,1.545,1.445,�쓌,7.4,��
2015/09/09,23:40,1.660,2.595,2.980,2.817,2.803,0.898,1.548,1.447,�쓌,8.8,��
2015/09/09,23:50,1.658,2.602,2.982,2.820,2.812,0.898,1.550,1.447,���쓌,12.4,�L
